[[{"header":{"parameterUnit":"m.s-1","parameterCategory":1,"la1":30.2992,"la2":30.254,"lo1":-89.0895,"lo2":-89.0443,"dy":0.0025,"dx":0.0025,"nx":19,"ny":19,"refTime":"2026-04-28T21:00:00:Z","depth":0,"parameterNumber":2,"parameterNumberName":"U-component_of_WINDS"},"data":[0,0,0,0.6898,0.6901,0.7058,0.7059,0.7254,0.7256,0,0,0,0,0,0,0,0,0,0,0,0.6847,0.6848,0.6898,0.6901,0.7058,0.7059,0.7254,0.7256,0,0,0,0,0,0,0,0,0,0,0,0.6846,0.6848,0.6849,0.6902,0.7058,0.7059,0.7254,0.7137,0,0,0,0,0,0,0,0,0,0,0.6986,0.6934,0.6847,0.6849,0.6903,0.7058,0.7059,0.7132,0.7145,0.718,0,0.721,0,0.7236,0.7269,0.7269,0,0,0,0.6905,0.6923,0.697,0.6849,0.6904,0.7058,0.6989,0.7139,0.7154,0.7197,0.7212,0.722,0.7239,0.727,0.7271,0.746,0.746,0,0,0.6897,0.6873,0.696,0.6979,0.6952,0.6984,0.6993,0.7148,0.7164,0.7213,0.7225,0.7242,0.7271,0.7272,0.7459,0.746,0,0,0,0.6869,0.6867,0.6909,0.697,0.6999,0.6988,0.6999,0.7157,0.7173,0.7227,0.7244,0.7272,0.7274,0.7458,0.7459,0.747,0,0,0,0.6864,0.6851,0.6905,0.6892,0.6996,0.708,0.7004,0.7162,0.718,0.7243,0.7272,0.7276,0.7458,0.7459,0.7469,0.748,0,0,0,0.6838,0.6848,0.6868,0.6891,0.6957,0.7078,0.7103,0.7166,0.7191,0.7269,0.7277,0.7457,0.7459,0.7467,0.7478,0.7523,0,0,0,0.6804,0.6877,0.6868,0.6957,0.6956,0.7082,0.7102,0.7198,0.7266,0.7273,0.7458,0.7459,0.7466,0.7476,0.7521,0.7558,0.7571,0,0,0.6883,0.6885,0.6939,0.6936,0.7058,0.706,0.7185,0.7271,0.7301,0.7405,0.741,0.7469,0.7477,0.7523,0.7649,0.7659,0,0,0,0.6956,0.6995,0.7032,0.7096,0.7162,0.7221,0.729,0.7322,0.7411,0.7349,0.7498,0.7504,0.7532,0.7551,0.7559,0.7585,0.7467,0.7466,0.7466,0.7034,0.7067,0.7159,0.7211,0.7272,0.7343,0.7396,0.7451,0.7468,0.7502,0.7534,0.7606,0.7627,0.7634,0.766,0.7555,0.7555,0.7555,0.7555,0.7153,0.7213,0.7232,0.7328,0.7363,0.7444,0.7515,0.7523,0.7605,0.7585,0.7611,0.7588,0.7643,0.7668,0.7557,0.7556,0.7556,0.7556,0.7556,0.7209,0.7243,0.728,0.7375,0.7445,0.7495,0.7572,0.7602,0.763,0.7656,0.7693,0.7693,0.7697,0.7671,0.7671,0.7671,0.7672,0.7672,0.7672,0.7252,0.7293,0.7354,0.743,0.7474,0.7537,0.7608,0.7653,0.7711,0.7726,0.7727,0.774,0.7642,0.7617,0.7676,0.7675,0.7675,0.7674,0.7674,0.7362,0.7342,0.7435,0.748,0.7572,0.764,0.7675,0.7765,0.7806,0.7844,0.7851,0.7773,0.7779,0.7773,0.7752,0.7843,0.7843,0.7843,0.7843,0.7409,0.7414,0.7517,0.7586,0.7658,0.7699,0.7806,0.7861,0.7916,0.7944,0.7935,0.7911,0.7902,0.7913,0.7904,0.7885,0.8008,0.8008,0.8008,0.7479,0.7493,0.7577,0.7629,0.7703,0.7766,0.7867,0.7947,0.8005,0.8015,0.7967,0.796,0.7921,0.7906,0.7916,0.7901,0.7868,0,0]},{"header":{"parameterUnit":"m.s-1","parameterCategory":1,"la1":30.2992,"la2":30.254,"lo1":-89.0895,"lo2":-89.0443,"dy":0.0025,"dx":0.0025,"nx":19,"ny":19,"refTime":"2026-04-28T21:00:00:Z","depth":0,"parameterNumber":3,"parameterNumberName":"V-component_of_WINDS"},"data":[0,0,0,5.2944,5.2945,5.2966,5.2966,5.3014,5.3015,0,0,0,0,0,0,0,0,0,0,0,5.295,5.295,5.2944,5.2945,5.2966,5.2966,5.3014,5.3015,0,0,0,0,0,0,0,0,0,0,0,5.2949,5.295,5.2951,5.2945,5.2966,5.2966,5.3014,5.299,0,0,0,0,0,0,0,0,0,0,5.2966,5.2983,5.295,5.2951,5.2945,5.2966,5.2966,5.2989,5.2992,5.3013,0,5.3035,0,5.3026,5.3019,5.3019,0,0,0,5.2935,5.2981,5.2976,5.2951,5.2945,5.2966,5.2954,5.299,5.2994,5.3017,5.3036,5.3037,5.3027,5.302,5.302,5.3174,5.3175,0,0,5.2934,5.296,5.2973,5.2978,5.2976,5.2953,5.2955,5.2992,5.3014,5.3036,5.3038,5.3027,5.302,5.3021,5.3173,5.3174,0,0,0,5.2937,5.2959,5.2953,5.2977,5.2979,5.2954,5.2956,5.3012,5.3008,5.3038,5.3028,5.3021,5.3021,5.3172,5.3174,5.3256,0,0,0,5.2936,5.2961,5.2953,5.2969,5.2979,5.2996,5.2975,5.3005,5.3009,5.3028,5.3021,5.3022,5.317,5.3173,5.3251,5.3291,0,0,0,5.2944,5.2962,5.2969,5.297,5.298,5.2995,5.2992,5.3005,5.3003,5.302,5.3022,5.3169,5.3172,5.3247,5.3283,5.334,0,0,0,5.296,5.3041,5.2971,5.3058,5.2981,5.3046,5.2992,5.3039,5.3063,5.3021,5.3171,5.3173,5.3245,5.3279,5.3335,5.3393,5.3419,0,0,5.3077,5.3056,5.3106,5.3043,5.3128,5.304,5.3137,5.3134,5.3112,5.3155,5.3158,5.3253,5.3283,5.3339,5.3555,5.3576,0,0,0,5.3151,5.3187,5.3204,5.3229,5.3229,5.3233,5.3213,5.3212,5.3247,5.3139,5.3287,5.3304,5.3336,5.3363,5.338,5.3407,5.3186,5.3186,5.3186,5.3354,5.3322,5.3402,5.3373,5.3398,5.3377,5.3394,5.3389,5.3348,5.3384,5.3397,5.3532,5.3564,5.3577,5.3605,5.3424,5.3424,5.3425,5.3425,5.3523,5.3569,5.3515,5.3574,5.354,5.3588,5.3572,5.3542,5.3582,5.3519,5.3546,5.3481,5.3601,5.3624,5.3431,5.343,5.3429,5.3428,5.3428,5.3653,5.3669,5.3668,5.3701,5.373,5.3698,5.374,5.3706,5.3676,5.3702,5.3712,5.3711,5.3706,5.3709,5.371,5.371,5.3711,5.3711,5.3711,5.3788,5.3783,5.3823,5.3832,5.3844,5.3856,5.3837,5.3847,5.3851,5.3824,5.3824,5.3781,5.3619,5.3579,5.3718,5.3717,5.3716,5.3715,5.3715,5.3973,5.3926,5.3987,5.4,5.4008,5.404,5.3998,5.4023,5.4027,5.405,5.4001,5.3886,5.3863,5.3848,5.3815,5.4007,5.4007,5.4007,5.4007,5.4083,5.4068,5.4124,5.4146,5.4164,5.4133,5.4204,5.4191,5.4169,5.417,5.4137,5.409,5.4077,5.4061,5.4042,5.4011,5.4249,5.4249,5.4249,5.4195,5.418,5.4247,5.4226,5.4231,5.4235,5.4302,5.433,5.4296,5.4258,5.417,5.416,5.4084,5.4061,5.4022,5.3993,5.3935,0,0]}]]